Torna al catalogo

STARLINK-5441

AttivoComunicazioniVLEO
NORAD 54787·PAYLOAD·🇺🇸 United States

Lanciato Dec 17, 2022 da Cape Canaveral Space Force Station

Loading…

Prossimi Passaggi (prossime 24 ore)

TLE

AggiornatoSource: CelesTrak SupGP

Epoca: Sep 15, 2026, 02:50 UTC

1 54787C 22175AF  26258.11854167 -.00036900  00000+0 -10902-2 0  2585
2 54787  53.1603 263.0423 0001283  84.8979 145.1391 15.34410658    12

Traccia STARLINK-5441 in tempo reale con AllMySat

Download on the App Store